User: anonymous   Login
Location: Hamayl? Da??
(36.7028°N, 30.1716°E)
Time: 08:54:52
(UTC+00:00)
Language:

Transit 2A - Orbit

View from above orbital plane
View from above orbital plane
View from above satellite
View from above satellite

Ground track
Ground track

The orbit data is extracted from the following two-line orbital elements,

1    45U 60007A   25343.70320725  .00000596  00000-0  16804-3 0  9997
2    45  66.6922 141.3641 0255538 296.7665  60.7497 14.35778013352845
Epoch (UTC): 09 December 2025 16:52:37
Eccentricity: 0.0255538
inclination: 66.6922°
perigee height: 590 km
apogee height: 955 km
right ascension of ascending node: 141.3641°
argument of perigee: 296.7665°
revolutions per day: 14.35778013
mean anomaly at epoch: 60.7497°
orbit number at epoch: 35284

The dashed part of the orbit path shows where the satellite is in the earth's shadow,  

DLR